McCook, NE

1:36 AM CDT on May 30, 2017 (GMT -0500)
McCook Municipal

Weather History for KMCK - August, 2013

Change the Weather History Date:

Thursday, August 1, 2013

  Actual Average Record
Temperature  
Mean Temperature 80 °F 76 °F  
Max Temperature 94 °F 89 °F 107 °F (2005)
Min Temperature 65 °F 62 °F 49 °F (1923)
Cooling Degree Days 14    
Growing Degree Days 28 (Base 50)    
Moisture  
Dew Point 63 °F    
Average Humidity 58    
Maximum Humidity 87    
Minimum Humidity 36    
Precipitation  
Precipitation 0.00 in 0.12 in 0.90 in (1972)
Month to date precipitation 0.00 0.12  
Year to date precipitation 7.68 14.69  
Sea Level Pressure  
Sea Level Pressure 29.95 in    
Wind  
Wind Speed 8 mph (SSE)    
Max Wind Speed 28 mph    
Max Gust Speed 36 mph    
Visibility 10 miles    
Events      
T = Trace of Precipitation, MM = Missing Value Source: NWS Daily Summary

Daily Weather History Graph

Daily Weather History Graph

Search for Another Location

Airport or City:

Trip Planner

Search our weather history database for the weather conditions in past years. The results will help you decide how hot, cold, wet, or windy it might be!

Date:

Astronomy

Aug. 01, 2013 Rise Set
Actual Time 6:40 AM CDT 8:56 PM CDT
Civil Twilight 6:10 AM CDT 9:26 PM CDT
Nautical Twilight 5:32 AM CDT 10:03 PM CDT
Astronomical Twilight 4:51 AM CDT 10:44 PM CDT
Moon 2:18 AM CDT (8/1) 5:06 PM CDT (8/1)
Length of Visible Light 15h 16m
Length of Day
14h 15m
Waning Crescent, 23% of the Moon is Illuminated
Aug 1
Waning Crescent
Aug 6
New
Aug 14
First Quarter
Aug 20
Full
Aug 28
Last Quarter

Hourly Weather History & Observations

Time (CDT) Temp. Heat Index Dew Point Humidity Pressure Visibility Wind Dir Wind Speed Gust Speed Precip Events Conditions
12:53 AM 69.1 °F - 62.1 °F 78% 30.09 in 10.0 mi ESE 4.6 mph - N/A   Clear
1:53 AM 68.0 °F - 62.1 °F 81% 30.11 in 10.0 mi Calm Calm - N/A   Clear
2:53 AM 66.9 °F - 63.0 °F 87% 30.11 in 10.0 mi South 3.5 mph - N/A   Clear
3:53 AM 66.9 °F - 63.0 °F 87% 30.05 in 10.0 mi SSW 10.4 mph - N/A   Clear
4:53 AM 69.1 °F - 62.1 °F 78% 30.04 in 10.0 mi Calm Calm - N/A   Clear
5:53 AM 68.0 °F - 62.1 °F 81% 30.05 in 10.0 mi SE 3.5 mph - N/A   Clear
6:53 AM 64.9 °F - 61.0 °F 87% 30.07 in 10.0 mi North 3.5 mph - N/A   Clear
7:53 AM 68.0 °F - 63.0 °F 84% 30.06 in 10.0 mi ESE 6.9 mph - N/A   Clear
8:53 AM 73.9 °F - 64.0 °F 71% 30.05 in 10.0 mi South 6.9 mph - N/A   Clear
9:53 AM 79.0 °F - 64.0 °F 60% 30.03 in 10.0 mi SSE 11.5 mph - N/A   Clear
10:53 AM 84.0 °F 84.0 °F 60.1 °F 44% 30.02 in 10.0 mi SSE 13.8 mph - N/A   Clear
11:53 AM 88.0 °F 87.1 °F 59.0 °F 37% 30.01 in 10.0 mi South 17.3 mph 21.9 mph N/A   Clear
12:53 PM 89.1 °F 88.2 °F 59.0 °F 36% 30.00 in 10.0 mi Variable 5.8 mph - N/A   Clear
1:53 PM 90.0 °F 90.3 °F 62.1 °F 39% 29.96 in 10.0 mi South 6.9 mph 18.4 mph N/A   Partly Cloudy
2:53 PM 91.9 °F 92.5 °F 62.1 °F 37% 29.91 in 10.0 mi South 13.8 mph - N/A   Clear
3:53 PM 93.9 °F 95.6 °F 64.0 °F 37% 29.88 in 10.0 mi SSE 12.7 mph 23.0 mph N/A   Scattered Clouds
4:53 PM 93.0 °F 94.2 °F 63.0 °F 37% 29.84 in 10.0 mi South 18.4 mph 28.8 mph N/A   Clear
5:53 PM 93.9 °F 95.6 °F 64.0 °F 37% 29.80 in 10.0 mi South 17.3 mph 28.8 mph N/A   Clear
6:53 PM 91.0 °F 93.0 °F 64.9 °F 42% 29.80 in 10.0 mi South 17.3 mph 25.3 mph N/A   Clear
7:53 PM 90.0 °F 91.7 °F 64.9 °F 43% 29.78 in 10.0 mi South 15.0 mph 25.3 mph N/A   Clear
8:53 PM 88.0 °F 89.3 °F 64.0 °F 45% 29.79 in 10.0 mi South 8.1 mph 18.4 mph N/A   Clear
9:53 PM 84.9 °F 86.6 °F 64.9 °F 51% 29.75 in 10.0 mi South 13.8 mph 20.7 mph N/A   Clear
10:53 PM 82.0 °F 83.8 °F 64.9 °F 56% 29.76 in 10.0 mi South 15.0 mph 19.6 mph N/A   Clear
11:53 PM 78.1 °F - 63.0 °F 60% 29.85 in 10.0 mi NNE 27.6 mph 35.7 mph N/A   Clear